KB4ID Weather Reports


Display with metric or nautical units.
time (UTC)temp
F
wind
direction
speed
MPH
gust
MPH
rain 1hr
in
rain 24hr
in
rain mn
in
humidity
%
barometer
mb
20191112205405 36 221 0.0 0.0 0.00 0.77 0.77 96 1016.5
20191112204406 36 221 0.0 0.0 0.00 0.77 0.77 96 1016.5
20191112200406 36 153 0.0 0.0 0.01 0.77 0.77 96 1016.5
20191112195405 36 153 0.0 0.0 0.01 0.77 0.77 96 1015.9
20191112192405 36 153 0.0 0.0 0.02 0.77 0.77 96 1015.9
20191112191406 36 153 0.0 0.0 0.03 0.77 0.77 96 1016.2
20191112190405 36 153 0.0 0.0 0.03 0.76 0.76 96 1015.9
20191112185406 36 146 0.0 0.0 0.04 0.76 0.76 96 1015.5
20191112183405 36 5 0.0 0.0 0.07 0.75 0.75 96 1015.5
20191112174406 37 11 0.0 0.0 0.15 0.70 0.70 96 1014.5
20191112173406 37 25 0.0 0.0 0.15 0.68 0.68 96 1014.8
20191112171406 38 254 0.0 0.0 0.12 0.62 0.62 96 1015.2
20191112170406 38 337 0.0 0.0 0.11 0.60 0.60 96 1014.8
20191112165405 39 307 0.0 0.0 0.11 0.57 0.57 96 1014.8
20191112164406 39 307 0.0 0.0 0.12 0.55 0.55 95 1014.8
20191112163405 40 307 0.0 0.0 0.13 0.53 0.53 96 1014.8
20191112161406 40 19 0.0 0.0 0.16 0.50 0.50 96 1014.8
20191112155405 40 244 0.0 0.0 0.18 0.46 0.46 96 1014.8
20191112154405 40 210 0.0 0.0 0.17 0.43 0.43 95 1015.2
20191112152405 41 14 0.0 0.0 0.15 0.37 0.37 95 1014.5
20191112151406 42 15 0.0 0.0 0.13 0.34 0.34 94 1014.5
20191112145404 44 11 0.0 0.0 0.12 0.28 0.28 93 1014.5
20191112144405 45 12 0.0 0.0 0.12 0.26 0.26 93 1014.2
20191112143405 47 17 0.0 0.0 0.12 0.24 0.24 95 1013.8
20191112135406 50 88 0.0 0.0 0.10 0.16 0.16 97 1012.5
20191112133405 50 154 0.0 0.0 0.09 0.12 0.12 97 1011.8
20191112132404 50 154 0.0 0.0 0.07 0.10 0.10 96 1011.8
20191112131405 50 153 0.0 0.0 0.05 0.08 0.08 97 1011.5
20191112130405 50 154 0.0 0.0 0.05 0.08 0.08 96 1011.5
20191112125405 50 154 0.0 0.0 0.03 0.06 0.06 96 1011.5
20191112124405 50 153 0.0 0.0 0.03 0.05 0.05 96 1010.8
20191112121405 50 154 0.0 0.0 0.02 0.03 0.03 96 1010.4
20191112120405 50 153 0.0 0.0 0.02 0.03 0.03 95 1010.4
20191112114404 50 154 0.0 0.0 0.01 0.02 0.02 95 1010.4
20191112113405 50 154 0.0 0.0 0.01 0.02 0.02 94 1010.4
20191112112404 50 153 0.0 0.0 0.01 0.02 0.02 94 1010.8
20191112111405 50 154 0.0 0.0 0.00 0.01 0.01 94 1010.4
20191112105405 50 154 0.0 0.0 0.00 0.01 0.01 92 1010.8
20191112103405 50 153 0.0 0.0 0.01 0.01 0.01 91 1010.8
20191112102405 51 154 0.0 0.0 0.01 0.01 0.01 90 1011.1
20191112101404 51 153 0.0 0.0 0.01 0.01 0.01 89 1011.1
20191112100404 51 154 0.0 0.0 0.01 0.01 0.01 89 1011.1
20191112094405 52 154 0.0 0.0 0.00 0.00 0.00 85 1011.1
20191112093404 53 154 0.0 0.0 0.00 0.00 0.00 81 1011.5
20191112090404 53 155 0.0 0.0 0.00 0.00 0.00 79 1011.5
20191112083405 53 153 0.0 0.0 0.00 0.00 0.00 76 1011.8
20191112082405 53 155 0.0 0.0 0.00 0.00 0.00 75 1011.8
20191112081405 53 155 0.0 0.0 0.00 0.00 0.00 75 1011.8
20191112080404 53 153 0.0 0.0 0.00 0.00 0.00 73 1011.5
20191112075405 53 154 0.0 0.0 0.00 0.00 0.00 76 1011.5
20191112074404 53 153 0.0 0.0 0.00 0.00 0.00 76 1012.1
20191112072405 53 83 0.0 0.0 0.00 0.00 0.00 76 1012.1
20191112070406 53 83 0.0 0.0 0.00 0.00 0.00 74 1012.5
20191112064406 53 83 0.0 0.0 0.00 0.00 0.00 72 1012.5
20191112061404 53 83 0.0 0.0 0.00 0.00 0.00 73 1012.8
20191112055404 53 84 0.0 0.0 0.00 0.00 0.00 71 1013.2
20191112051405 53 83 0.0 0.0 0.00 0.00 0.00 71 1013.5
20191112044405 52 43 0.0 0.0 0.00 0.00 0.00 74 1013.8
20191112042404 51 42 0.0 0.0 0.00 0.00 0.00 76 1013.8
20191112040405 51 42 0.0 0.0 0.00 0.00 0.00 77 1013.8
20191112035405 51 58 0.0 0.0 0.00 0.00 0.00 76 1014.2
20191112034405 51 58 0.0 0.0 0.00 0.00 0.00 75 1013.8
20191112025406 53 58 0.0 0.0 0.00 0.00 0.00 72 1014.5
20191112023406 53 58 0.0 0.0 0.00 0.00 0.00 68 1014.8
20191112020406 53 58 0.0 0.0 0.00 0.00 0.00 69 1015.2
20191112015406 52 57 0.0 0.0 0.00 0.00 0.00 72 1014.8
20191112012405 52 5 0.0 0.0 0.00 0.00 0.00 73 1014.8
20191112005406 52 5 0.0 0.0 0.00 0.00 0.00 71 1014.8
20191112004406 52 5 0.0 0.0 0.00 0.00 0.00 72 1014.8
20191112003405 52 360 0.0 0.0 0.00 0.00 0.00 73 1014.8
20191112001406 52 360 0.0 0.0 0.00 0.00 0.00 74 1014.8
20191111235405 53 5 0.0 0.0 0.00 0.00 0.00 72 1014.8
20191111234406 53 5 0.0 0.0 0.00 0.00 0.00 73 1014.8
20191111232405 54 5 0.0 0.0 0.00 0.00 0.00 67 1014.2
20191111223406 59 5 0.0 0.0 0.00 0.00 0.00 62 1014.2
20191111221405 60 5 0.0 0.0 0.00 0.00 0.00 56 1014.5
20191111214405 63 360 0.0 0.0 0.00 0.00 0.00 52 1015.2
20191111212405 64 5 0.0 0.0 0.00 0.00 0.00 51 1015.5
20191111211405 65 5 0.0 0.0 0.00 0.00 0.00 51 1015.5
20191111210406 65 67 0.0 0.0 0.00 0.00 0.00 47 1015.5